Location: Franzen
(48.6167°N, 15.3833°E)
Time: 13:40:27
(UTC+00:00)

Meteor 1-10 Rocket - Pass Details

Date: 22 April 2021
Orbit: 836 x 910 km, 81.3° (Epoch: 16 May)

Event Time Altitude Azimuth Distance (km) Brightness Sun altitude
Exits shadow 22:51:55 58° 72° (ENE) 972 4.5 -28.9°
Drops below altitude 10° 22:56:55 10° 18° (NNE) 2,463 7.5 -28.9°
Sets 22:59:21 0° 15° (NNE) 3,406 8.5 -28.9°
